Orbital Elements at Epoch 2459000.5 (2020-May-31.0) TDB
Reference: JPL 14 (heliocentric ecliptic J2000)
Element | Value | Uncertainty (1-sigma) | Units |
e | .1878508032778409 | 5.529e-08 | |
a | 2.43631640748474 | 1.1208e-08 | au |
q | 1.978652413299748 | 1.3976e-07 | au |
i | .728975603256653 | 5.3881e-06 | deg |
node | 323.3334650897742 | 0.00034646 | deg |
peri | 351.4353496417679 | 0.00034668 | deg |
M | 266.4915652357906 | 1.1584e-05 | deg |
tp | 2459361.283982756505 (2021-May-26.78398276) | 4.5202e-05 | TDB |
period | 1388.989497256075 3.80 | 9.5849e-06 2.624e-08 | d yr |
n | .2591812254240753 | 1.7885e-09 | deg/d |
Q | 2.893980401669732 | 1.3314e-08 | au |
|
| | Orbit Determination Parameters
Additional Information
|